Regional Weather Roundup
Issued by NWS Albany, NY

Home | Current Version | Previous Version | Graphics & Text | Print | Product List | Glossary Off
Versions: 1 2 3 4 5 6 7 8 9 10 11 12 13 14 15 16 17 18 19 20 21 22 23 24 25 26 27 28 29 30 31 32 33 34 35 36 37 38 39 40 41 42 43 44 45 46 47 48 49 50

000
ASUS41 KALY 071710
RWRALY

NEW YORK STATE HOURLY WEATHER ROUNDUP
NATIONAL WEATHER SERVICE ALBANY NY
1200 PM EST SUN FEB 07 2016

NOTE: "FAIR" INDICATES FEW OR NO CLOUDS BELOW 12,000 FEET WITH NO
SIGNIFICANT WEATHER AND/OR NO OBSTRUCTIONS TO VISIBILITY.

NYZ032-033-038>043-046>054-057>066-NYZ062>081-071800-
EAST


CITY           SKY/WX    TMP DP  RH WIND       PRES   REMARKS
ALBANY         MOSUNNY   42  20  41 VRB6      30.15S
GLENS FALLS    MOSUNNY   40  22  48 E3        30.13F
POUGHKEEPSIE   SUNNY     44  20  38 CALM      30.12F
NEWBURGH       SUNNY     45  23  42 W5        30.12F
MONTGOMERY     SUNNY     45  21  38 CALM      30.11F
WHITE PLAINS   SUNNY     43  21  41 W5        30.11F
ISLIP          CLOUDY    43  23  45 CALM      30.14R
NEW YORK CITY  PTSUNNY   45  22  40 CALM      30.14F
CENTRAL PARK   SUNNY     42  20  41 CALM      30.15F
$$

NYZ005>009-017-018-044>046-055-056-071800-
CENTRAL


CITY           SKY/WX    TMP DP  RH WIND       PRES   REMARKS
FULTON         SUNNY     42  27  55 S8        30.10F
SYRACUSE       MOSUNNY   39  25  57 S7        30.10F WCI  34
ROME           PTSUNNY   38  25  59 S8        30.13F WCI  32
ELMIRA         SUNNY     40  22  48 CALM      30.07F
BINGHAMTON     SUNNY     38  20  48 VRB6      30.06F WCI  33
MONTICELLO     SUNNY     39  21  48 CALM      30.10S
$$

NYZ026>034-041>043-071800-
NORTH


CITY           SKY/WX    TMP DP  RH WIND       PRES   REMARKS
WATERTOWN      CLOUDY    36  28  73 S7        30.09S WCI  30
FORT DRUM      NOT AVBL
MASSENA        CLOUDY    30  20  66 E9        30.15F WCI  22
SARANAC LAKE   CLOUDY    31  21  66 CALM      30.02F
PLATTSBURGH    MIX PCPN  29  20  69 NE12      30.16S WCI  19
$$

NYZ001>004-010>016-019>021-071800-
WEST


CITY           SKY/WX    TMP DP  RH WIND       PRES   REMARKS
NIAGARA FALLS  MOSUNNY   42  26  53 S15       30.02F
BUFFALO        MOSUNNY   42  26  53 S15       30.03F
DUNKIRK        SUNNY     41  26  55 S18       30.01F
JAMESTOWN      SUNNY     37  25  60 S10       30.00F WCI  30
WELLSVILLE     SUNNY     38  23  55 VRB5      30.02F WCI  34
ROCHESTER      MOSUNNY   41  25  53 S12       30.06F
PENN YAN       SUNNY     40  22  48 SW12      30.07F WCI  33
$$

             KEY
       WCI = WIND CHILL INDEX
       VSB = VISIBILITY
       HX  = HEAT INDEX
$$



USA.gov is the U.S. government's official web portal to all federal, state and local government web resources and services.